| time (UTC) | temp C | wind direction | speed KPH | gust KPH | rain 1hr cm | rain 24hr cm | rain mn cm | humidity % | barometer mb |
| 20260506113535 | 23 | 108 | 1.6 | 3.2 | 0.00 | 0.00 | 0.00 | 100 | 1052.2 |
| 20260506112631 | 23 | 53 | 0.0 | 1.6 | 0.00 | 0.00 | 0.00 | 100 | 1052.1 |
| 20260506111631 | 23 | 69 | 1.6 | 4.8 | 0.00 | 0.00 | 0.00 | 100 | 1052.1 |
| 20260506110631 | 23 | 151 | 3.2 | 9.7 | 0.00 | 0.00 | 0.00 | 100 | 1052.1 |
| 20260506105631 | 23 | 235 | 3.2 | 11.3 | 0.00 | 0.00 | 0.00 | 100 | 1052.1 |
| 20260506104631 | 23 | 134 | 1.6 | 3.2 | 0.00 | 0.00 | 0.00 | 100 | 1052.1 |
| 20260506103633 | 23 | 77 | 1.6 | 4.8 | 0.00 | 0.00 | 0.00 | 100 | 1051.9 |
| 20260506102634 | 23 | 57 | 0.0 | 3.2 | 0.00 | 0.00 | 0.00 | 100 | 1051.6 |
| 20260506101732 | 23 | 320 | 1.6 | 4.8 | 0.00 | 0.00 | 0.00 | 100 | 1051.6 |
| 20260506100732 | 23 | 41 | 3.2 | 11.3 | 0.00 | 0.00 | 0.00 | 100 | 1051.4 |
| 20260506094831 | 23 | 175 | 4.8 | 14.5 | 0.00 | 0.00 | 0.00 | 100 | 1051.2 |
| 20260506093831 | 23 | 230 | 3.2 | 12.9 | 0.00 | 0.00 | 0.00 | 100 | 1051.0 |
| 20260506092835 | 23 | 81 | 3.2 | 6.4 | 0.00 | 0.00 | 0.00 | 100 | 1051.0 |
| 20260506091930 | 23 | 262 | 4.8 | 11.3 | 0.00 | 0.00 | 0.00 | 100 | 1051.0 |
| 20260506090931 | 23 | 84 | 3.2 | 11.3 | 0.00 | 0.00 | 0.00 | 100 | 1050.6 |
| 20260506085933 | 23 | 258 | 1.6 | 8.0 | 0.00 | 0.00 | 0.00 | 100 | 1050.7 |
| 20260506085032 | 23 | 93 | 4.8 | 14.5 | 0.00 | 0.00 | 0.00 | 100 | 1050.9 |
| 20260506084035 | 23 | 63 | 3.2 | 6.4 | 0.00 | 0.00 | 0.00 | 100 | 1050.9 |
| 20260506083132 | 23 | 105 | 4.8 | 11.3 | 0.00 | 0.00 | 0.00 | 100 | 1050.6 |
| 20260506081231 | 23 | 175 | 6.4 | 17.7 | 0.00 | 0.00 | 0.00 | 100 | 1050.8 |
| 20260506073432 | 23 | 152 | 3.2 | 11.3 | 0.00 | 0.00 | 0.00 | 100 | 1051.1 |
| 20260506071533 | 23 | 300 | 3.2 | 11.3 | 0.00 | 0.00 | 0.00 | 100 | 1051.4 |
| 20260506070534 | 23 | 55 | 1.6 | 6.4 | 0.00 | 0.00 | 0.00 | 100 | 1051.4 |
| 20260506060532 | 23 | 190 | 3.2 | 8.0 | 0.00 | 0.00 | 0.00 | 100 | 1051.4 |
| 20260506050632 | 24 | 177 | 6.4 | 14.5 | 0.00 | 0.00 | 0.00 | 100 | 1051.6 |
| 20260506044723 | 24 | 61 | 4.8 | 9.7 | 0.00 | 0.00 | 0.00 | 100 | 1051.4 |
| 20260506044621 | 24 | 303 | 4.8 | 9.7 | 0.00 | 0.00 | 0.00 | 100 | 1051.5 |
| 20260506043621 | 24 | 326 | 1.6 | 4.8 | 0.00 | 0.00 | 0.00 | 100 | 1051.5 |
| 20260506042622 | 25 | 40 | 3.2 | 11.3 | 0.00 | 0.00 | 0.00 | 100 | 1051.5 |
| 20260506041721 | 25 | 149 | 3.2 | 8.0 | 0.00 | 0.00 | 0.00 | 100 | 1051.3 |
| 20260506040721 | 25 | 240 | 4.8 | 8.0 | 0.00 | 0.00 | 0.00 | 100 | 1051.3 |
| 20260506035723 | 25 | 62 | 3.2 | 6.4 | 0.00 | 0.00 | 0.00 | 100 | 1051.2 |
| 20260506034721 | 25 | 93 | 1.6 | 6.4 | 0.00 | 0.00 | 0.00 | 100 | 1051.1 |
| 20260506033723 | 25 | 105 | 6.4 | 11.3 | 0.00 | 0.00 | 0.00 | 100 | 1050.9 |
| 20260506032721 | 25 | 99 | 3.2 | 8.0 | 0.00 | 0.00 | 0.00 | 100 | 1051.0 |
| 20260506031722 | 25 | 124 | 3.2 | 6.4 | 0.00 | 0.00 | 0.00 | 100 | 1050.6 |
| 20260506030721 | 25 | 163 | 3.2 | 6.4 | 0.00 | 0.00 | 0.00 | 100 | 1050.5 |
| 20260506025820 | 25 | 83 | 3.2 | 11.3 | 0.00 | 0.00 | 0.00 | 100 | 1050.5 |
| 20260506023921 | 25 | 88 | 3.2 | 8.0 | 0.00 | 0.00 | 0.00 | 100 | 1050.1 |
| 20260506022922 | 26 | 99 | 3.2 | 9.7 | 0.00 | 0.00 | 0.00 | 100 | 1049.8 |
| 20260506021919 | 26 | 145 | 3.2 | 6.4 | 0.00 | 0.00 | 0.00 | 100 | 1049.5 |
| 20260506020921 | 26 | 183 | 3.2 | 9.7 | 0.00 | 0.00 | 0.00 | 100 | 1049.5 |
| 20260506015919 | 26 | 127 | 3.2 | 9.7 | 0.00 | 0.00 | 0.00 | 100 | 1049.2 |
| 20260506014923 | 26 | 226 | 1.6 | 6.4 | 0.00 | 0.00 | 0.00 | 100 | 1049.3 |
| 20260506013021 | 27 | 108 | 3.2 | 11.3 | 0.00 | 0.00 | 0.00 | 100 | 1049.1 |
| 20260506012022 | 27 | 67 | 1.6 | 6.4 | 0.00 | 0.00 | 0.00 | 100 | 1049.2 |
| 20260506011020 | 27 | 27 | 1.6 | 4.8 | 0.00 | 0.00 | 0.00 | 100 | 1049.3 |
| 20260506005120 | 27 | 126 | 3.2 | 8.0 | 0.00 | 0.00 | 0.00 | 100 | 1049.2 |
| 20260506004122 | 27 | 70 | 3.2 | 6.4 | 0.00 | 0.00 | 0.00 | 100 | 1049.1 |
| 20260506003121 | 27 | 63 | 1.6 | 4.8 | 0.00 | 0.00 | 0.00 | 100 | 1049.0 |
| 20260506002220 | 27 | 291 | 6.4 | 11.3 | 0.00 | 0.00 | 0.00 | 100 | 1049.0 |
| 20260506001223 | 27 | 122 | 1.6 | 8.0 | 0.00 | 0.00 | 0.00 | 100 | 1048.9 |
| 20260505235221 | 28 | 105 | 0.0 | 4.8 | 0.00 | 0.00 | 0.00 | 100 | 1048.8 |
| 20260505234221 | 28 | 334 | 3.2 | 11.3 | 0.00 | 0.00 | 0.00 | 100 | 1048.7 |
| 20260505233319 | 28 | 48 | 1.6 | 6.4 | 0.00 | 0.00 | 0.00 | 100 | 1048.7 |
| 20260505232321 | 28 | 34 | 1.6 | 8.0 | 0.00 | 0.00 | 0.00 | 100 | 1048.6 |
| 20260505230320 | 28 | 20 | 1.6 | 6.4 | 0.00 | 0.00 | 0.00 | 100 | 1048.5 |
| 20260505225320 | 28 | 87 | 4.8 | 11.3 | 0.00 | 0.00 | 0.00 | 100 | 1048.4 |
| 20260505224319 | 28 | 107 | 4.8 | 11.3 | 0.00 | 0.00 | 0.00 | 100 | 1048.5 |
| 20260505224221 | 28 | 51 | 3.2 | 9.7 | 0.00 | 0.00 | 0.00 | 100 | 1048.5 |
| 20260505223320 | 28 | 254 | 6.4 | 16.1 | 0.00 | 0.00 | 0.00 | 100 | 1048.5 |
| 20260505222420 | 28 | 61 | 4.8 | 8.0 | 0.00 | 0.00 | 0.00 | 100 | 1048.5 |
| 20260505220420 | 28 | 358 | 3.2 | 9.7 | 0.00 | 0.00 | 0.00 | 100 | 1048.5 |
| 20260505215419 | 28 | 165 | 6.4 | 19.3 | 0.00 | 0.00 | 0.00 | 100 | 1048.6 |
| 20260505214420 | 28 | 39 | 4.8 | 8.0 | 0.00 | 0.00 | 0.00 | 100 | 1049.0 |
| 20260505213422 | 28 | 187 | 6.4 | 14.5 | 0.00 | 0.00 | 0.00 | 100 | 1049.1 |
| 20260505212421 | 28 | 235 | 8.0 | 20.9 | 0.00 | 0.00 | 0.00 | 100 | 1049.1 |
| 20260505211421 | 28 | 255 | 6.4 | 14.5 | 0.00 | 0.00 | 0.00 | 100 | 1049.1 |
| 20260505210519 | 28 | 162 | 4.8 | 12.9 | 0.00 | 0.00 | 0.00 | 100 | 1049.1 |
| 20260505205520 | 28 | 76 | 3.2 | 9.7 | 0.00 | 0.00 | 0.00 | 100 | 1049.3 |
| 20260505202720 | 27 | 219 | 4.8 | 11.3 | 0.00 | 0.00 | 0.00 | 100 | 1050.2 |
| 20260505201721 | 27 | 223 | 4.8 | 14.5 | 0.00 | 0.00 | 0.00 | 100 | 1050.2 |
| 20260505194720 | 27 | 80 | 4.8 | 8.0 | 0.00 | 0.00 | 0.00 | 100 | 1050.5 |
| 20260505193819 | 26 | 197 | 4.8 | 12.9 | 0.00 | 0.00 | 0.00 | 100 | 1050.6 |
| 20260505192821 | 26 | 205 | 4.8 | 11.3 | 0.00 | 0.00 | 0.00 | 100 | 1050.6 |
| 20260505191821 | 26 | 104 | 3.2 | 8.0 | 0.00 | 0.00 | 0.00 | 100 | 1050.7 |
| 20260505190820 | 26 | 83 | 3.2 | 8.0 | 0.00 | 0.00 | 0.00 | 100 | 1050.7 |
| 20260505185821 | 26 | 273 | 6.4 | 17.7 | 0.00 | 0.00 | 0.00 | 100 | 1050.9 |
| 20260505183819 | 26 | 265 | 6.4 | 14.5 | 0.00 | 0.00 | 0.00 | 100 | 1051.3 |
| 20260505182822 | 25 | 205 | 1.6 | 6.4 | 0.00 | 0.00 | 0.00 | 100 | 1051.4 |
| 20260505181820 | 25 | 197 | 3.2 | 6.4 | 0.00 | 0.00 | 0.00 | 100 | 1051.3 |
| 20260505174921 | 23 | 221 | 3.2 | 9.7 | 0.00 | 0.00 | 0.00 | 100 | 1051.8 |
| 20260505173920 | 23 | 309 | 4.8 | 11.3 | 0.00 | 0.00 | 0.00 | 100 | 1051.9 |
| 20260505172919 | 23 | 254 | 9.7 | 16.1 | 0.00 | 0.00 | 0.00 | 100 | 1052.0 |
| 20260505171919 | 23 | 86 | 4.8 | 9.7 | 0.00 | 0.00 | 0.00 | 100 | 1052.0 |
| 20260505170920 | 23 | 182 | 3.2 | 17.7 | 0.00 | 0.00 | 0.00 | 100 | 1052.2 |
| 20260505165921 | 23 | 265 | 6.4 | 17.7 | 0.00 | 0.00 | 0.00 | 100 | 1052.0 |
| 20260505165018 | 23 | 115 | 4.8 | 9.7 | 0.00 | 0.00 | 0.00 | 100 | 1052.0 |
| 20260505164020 | 23 | 273 | 4.8 | 11.3 | 0.00 | 0.00 | 0.00 | 100 | 1052.0 |
| 20260505163020 | 22 | 90 | 3.2 | 6.4 | 0.00 | 0.00 | 0.00 | 100 | 1052.0 |
| 20260505162021 | 22 | 241 | 4.8 | 9.7 | 0.00 | 0.00 | 0.00 | 100 | 1052.0 |
| 20260505161019 | 22 | 257 | 6.4 | 14.5 | 0.00 | 0.00 | 0.00 | 100 | 1052.1 |
| 20260505153019 | 21 | 257 | 6.4 | 16.1 | 0.00 | 0.00 | 0.00 | 100 | 1052.2 |
| 20260505152019 | 21 | 253 | 6.4 | 11.3 | 0.00 | 0.00 | 0.00 | 100 | 1052.1 |
| 20260505151022 | 21 | 258 | 4.8 | 19.3 | 0.00 | 0.00 | 0.00 | 100 | 1051.9 |
| 20260505130118 | 21 | 359 | 1.6 | 6.4 | 0.00 | 0.00 | 0.00 | 100 | 1051.1 |
| 20260505123122 | 21 | 285 | 6.4 | 16.1 | 0.00 | 0.00 | 0.00 | 100 | 1050.8 |
| 20260505122121 | 21 | 156 | 4.8 | 11.3 | 0.00 | 0.00 | 0.00 | 100 | 1050.4 |
| 20260505120120 | 21 | 59 | 3.2 | 8.0 | 0.00 | 0.00 | 0.00 | 100 | 1050.3 |
| 20260505115218 | 21 | 276 | 3.2 | 8.0 | 0.00 | 0.00 | 0.00 | 100 | 1050.4 |